Location: Northam
(31.6525°S, 116.6655°E)
Time: 18:19:05
(UTC+08:00)

Transit 2A Rocket - All Passes

Search period start: 13 June 2021 00:00
Search period end: 23 June 2021 00:00
Orbit: 592 x 910 km, 66.7° (Epoch: 12 June)

Date Brightness Start Highest point End Pass type
(mag) Time Alt. Az. Time Alt. Az. Time Alt. Az.
13 Jun - 00:47:34 10° SW 00:51:27 22° WNW 00:55:05 10° NNW night (unlit)
13 Jun - 13:31:32 10° NNW 13:37:33 73° ENE 13:43:40 10° SSE daylight
13 Jun - 15:16:53 10° W 15:20:44 17° SW 15:24:36 10° SSW daylight
13 Jun - 22:22:36 10° S 22:26:14 18° SE 22:29:38 10° E night (unlit)
14 Jun - 00:04:13 10° SW 00:09:05 44° WNW 00:13:32 10° N night (unlit)
14 Jun - 12:49:26 10° N 12:55:03 41° ENE 13:00:44 10° SE daylight
14 Jun - 14:32:38 10° WNW 14:37:46 28° SW 14:42:56 10° S daylight
14 Jun - 21:42:18 10° SE 21:43:08 10° SE 21:43:58 10° SE night (unlit)
14 Jun - 23:21:22 10° SSW 23:26:36 88° WNW 23:31:17 10° NNE night (unlit)
15 Jun - 12:08:00 10° NNE 12:12:38 23° ENE 12:17:20 10° SE daylight
15 Jun - 13:49:07 10° NW 13:54:55 46° WSW 14:00:47 10° SSE daylight
15 Jun - 22:38:52 10° SSW 22:43:56 48° ESE 22:48:29 10° NE night (unlit)
16 Jun - 00:23:18 10° WSW 00:25:51 14° WNW 00:28:18 10° NW night (unlit)
16 Jun - 11:27:58 10° NE 11:30:20 12° ENE 11:32:43 10° E daylight
16 Jun - 13:06:09 10° NNW 13:12:13 80° WSW 13:18:21 10° SSE daylight
16 Jun - 14:53:25 10° WSW 14:55:43 12° SW 14:58:01 10° SSW daylight
16 Jun - 21:56:44 10° S 22:01:06 26° SE 22:05:07 10° ENE night (unlit)
16 Jun - 23:39:16 10° SW 23:43:34 28° WNW 23:47:33 10° NNW night (unlit)
17 Jun - 12:23:42 10° N 12:29:38 60° ENE 12:35:39 10° SSE daylight
17 Jun - 14:08:15 10° W 14:12:39 20° SW 14:17:03 10° S daylight
17 Jun - 21:15:10 10° SSE 21:18:06 15° SE 21:20:54 10° E night (unlit)
17 Jun - 22:56:09 10° SW 23:01:10 56° WNW 23:05:43 10° N night (unlit)
18 Jun - 11:41:48 10° N 11:47:10 34° ENE 11:52:35 10° SE daylight
18 Jun - 13:24:17 10° WNW 13:29:43 33° WSW 13:35:11 10° S daylight
18 Jun - 22:13:26 10° SSW 22:18:36 73° ESE 22:23:16 10° NNE night (unlit)
19 Jun - 11:00:43 10° NNE 11:04:48 19° ENE 11:08:55 10° ESE daylight
19 Jun - 12:40:59 10° NW 12:46:57 56° WSW 12:52:56 10° SSE daylight
19 Jun - 21:31:04 10° S 21:35:53 38° ESE 21:40:17 10° NE night (unlit)
19 Jun - 23:14:41 10° WSW 23:18:00 18° WNW 23:21:08 10° NNW night (unlit)
20 Jun - 11:58:13 10° NNW 12:04:17 85° ENE 12:10:24 10° SSE daylight
20 Jun - 13:44:19 10° W 13:47:35 15° SW 13:50:50 10° SSW daylight
20 Jun - 20:49:05 10° S 20:53:00 21° SE 20:56:39 10° ENE night (unlit)
20 Jun - 22:31:06 10° SW 22:35:41 35° WNW 22:39:53 10° N night (unlit)
21 Jun - 11:15:57 10° N 11:21:44 49° ENE 11:27:35 10° SE daylight
21 Jun - 12:59:44 10° WNW 13:04:34 24° SW 13:09:24 10° S daylight
21 Jun - 20:08:00 10° SSE 20:09:57 12° SE 20:11:51 10° ESE night (unlit)
21 Jun - 21:48:07 10° SSW 21:53:13 73° WNW 21:57:49 10° NNE night (unlit)
22 Jun - 10:34:17 10° NNE 10:39:18 28° ENE 10:44:22 10° SE daylight
22 Jun - 12:16:02 10° NW 12:21:43 40° WSW 12:27:24 10° S daylight
22 Jun - 21:05:33 10° SSW 21:10:36 57° ESE 21:15:11 10° NE night (unlit)
22 Jun - 22:51:06 10° W 22:52:23 11° WNW 22:53:39 10° WNW night (unlit)
